Weather Service Report


359 
ASUS44 KFWD 300015
RWRTX 
NORTH TEXAS HOURLY WEATHER ROUNDUP
NATIONAL WEATHER SERVICE FORT WORTH TX
700 PM CDT FRI APR 29 2016

NOTE: "FAIR" INDICATES FEW OR NO CLOUDS BELOW 12,000 FEET WITH NO
SIGNIFICANT WEATHER AND/OR OBSTRUCTIONS TO VISIBILITY.

TXZ118-119-300100-
DALLAS/FORT WORTH METROPLEX
  
CITY           SKY/WX    TMP DP  RH WIND       PRES   REMARKS
DFW AIRPORT    PTSUNNY   76  68  76 S8        29.54S                  
6HR MIN TEMP:  73; 6HR MAX TEMP:  87; 6HR PCP:  0.07;                

DALLAS LOVE    CLOUDY    74  70  87 SE10      29.54S FOG              
6HR MIN TEMP:  73; 6HR MAX TEMP:  83; 6HR PCP:  0.04;                

FTW MEACHAM    CLOUDY    76  71  85 S10       29.52F                  
6HR MIN TEMP:  71; 6HR MAX TEMP:  87; 6HR PCP:  0.09;                

DAL-EXECUTIVE  CLOUDY    74  71  91 SE6       29.55R FOG              
6HR MIN TEMP:  73; 6HR MAX TEMP:  83; 6HR PCP: TRACE;                

FTW-ALLIANCE   CLOUDY    76  69  79 S12G18    29.52F                  
6HR MIN TEMP:  74; 6HR MAX TEMP:  85; 6HR PCP: TRACE;                

FTW-NAS-JRB    CLOUDY    76  71  85 S15       29.52F                  
6HR MIN TEMP:  69; 6HR MAX TEMP:  86; 6HR PCP:  0.27;                

FTW-SPINKS     PTSUNNY   73  72  94 S12       29.53F                  
ARLINGTON      CLOUDY    77  70  79 S7        29.54S                  
6HR MIN TEMP:  73; 6HR MAX TEMP:  85; 6HR PCP:  0.10;                

GRAND PRAIRIE  MOSUNNY   73  66  78 SE7       29.55S                  
ADDISON        PTSUNNY   73  73 100 SE6       29.54S                  
MESQUITE       CLOUDY    72  70  94 SE9       29.56S                  
LANCASTER      CLOUDY    71  67  88 E3        29.57R                  
6HR MIN TEMP:  70; 6HR MAX TEMP:  81; 6HR PCP:  0.01;                

$$

TXZ091>094-102>105-117-120-121-131>134-300100-
NORTH CENTRAL TEXAS
  
CITY           SKY/WX    TMP DP  RH WIND       PRES   REMARKS
SHRMAN/DENISON CLOUDY    69  65  86 SE14G20   29.58R                  
6HR MIN TEMP:  67; 6HR MAX TEMP:  77; 6HR PCP:  0.37;                

GAINESVILLE    MOSUNNY   76  68  76 E6        29.58R                  
6HR MIN TEMP:  74; 6HR MAX TEMP:  81; 6HR PCP:  0.04;                

BOWIE          MOSUNNY   79  58  48 N8        29.56R                  
6HR MIN TEMP:  76; 6HR MAX TEMP:  83;                                

BRIDGEPORT     SUNNY     78  71  78 S9G16     29.54S                  
6HR MIN TEMP:  77; 6HR MAX TEMP:  84; 6HR PCP:  0.04;                

DECATUR        SUNNY     77  68  73 S9        29.54S                  
6HR MIN TEMP:  69; 6HR MAX TEMP:  81; 6HR PCP:  0.12;                

DENTON         SUNNY     74  66  76 S8        29.53R                  
6HR MIN TEMP:  66; 6HR MAX TEMP:  82; 6HR PCP:  0.04;                

MCKINNEY       LGT RAIN  70  69  97 SE8       29.55R                  
6HR MIN TEMP:  70; 6HR MAX TEMP:  81; 6HR PCP:  0.34;                

GREENVILLE     CLOUDY    68  66  94 SE9       29.56F                  
ROCKWALL       CLOUDY    69  69  98 SE12      29.55R                  
6HR MIN TEMP:  69; 6HR MAX TEMP:  82; 6HR PCP:  0.07;                

TERRELL        CLOUDY    72  70  93 SE7       29.57S                  
6HR MIN TEMP:  68; 6HR MAX TEMP:  79; 6HR PCP:  1.07;                

WAXAHACHIE     CLOUDY    75  75  99 S3        29.55S FOG              
6HR MIN TEMP:  75; 6HR MAX TEMP:  82;                                

CLEBURNE       RAIN      70  68  94 S12G17    29.56S                  
GRANBURY       CLOUDY    77  70  77 SE10      29.55F                  
6HR MIN TEMP:  73; 6HR MAX TEMP:  83; 6HR PCP:  0.16;                

$$

TXZ083>090-098>101-113>116-127>130-139>142-154-155-300100-
WESTERN NORTH TEXAS
  
CITY           SKY/WX    TMP DP  RH WIND       PRES   REMARKS
WICHITA FALLS  MOSUNNY   73  61  65 NW13G24   29.55R                  
6HR MIN TEMP:  73; 6HR MAX TEMP:  87;                                

WF-KICKAPOO    SUNNY     76  61  60 N15       29.57R                  
6HR MIN TEMP:  76; 6HR MAX TEMP:  91;                                

VERNON         SUNNY     69  55  60 N17       29.62R                  
6HR MIN TEMP:  53; 6HR MAX TEMP:  86;                                

ABILENE        SUNNY     82  45  27 W8        29.60S                  
6HR MIN TEMP:  80; 6HR MAX TEMP:  86;                                

ABILENE-DYESS  SUNNY     85  47  26 SW10      29.59R                  
6HR MIN TEMP:  84; 6HR MAX TEMP:  87;                                

BRECKENRIDGE   SUNNY     86  46  25 W6        29.55S HAZE             
6HR MIN TEMP:  85; 6HR MAX TEMP:  91;                                

GRAHAM         SUNNY     86  52  31 W6        29.53S                  
6HR MIN TEMP:  71; 6HR MAX TEMP:  91;                                

MINERAL WELLS  CLOUDY    74  65  73 SE8       29.52S                  
6HR MIN TEMP:  72; 6HR MAX TEMP:  84; 6HR PCP:  0.23;                

STEPHENVILLE   CLOUDY    81  70  68 SW7       29.57S                  
6HR MIN TEMP:  71; 6HR MAX TEMP:  81; 6HR PCP:  0.34;                

COMANCHE       SUNNY     78  70  77 SW6       29.56F                  
6HR MIN TEMP:  72; 6HR MAX TEMP:  78; 6HR PCP:  0.01;                

BROWNWOOD      SUNNY     81  72  74 CALM      29.56F                  
COLEMAN        SUNNY     85  48  27 NW6       29.59S                  
6HR MIN TEMP:  81; 6HR MAX TEMP:  89;                                

$$

TXZ143>147-156>162-174-175-300100-
CENTRAL TEXAS
  
CITY           SKY/WX    TMP DP  RH WIND       PRES   REMARKS
WACO           PTSUNNY   80  71  74 S16G25    29.52F                  
6HR MIN TEMP:  77; 6HR MAX TEMP:  83; 6HR PCP:  0.02;                

WACO-TSTC      CLOUDY    81  72  74 S14G20    29.55S                  
WACO-MCGREGOR  CLOUDY    80  74  81 S14       29.53F                  
6HR MIN TEMP:  76; 6HR MAX TEMP:  84; 6HR PCP:  0.04;                

HILLSBORO      CLOUDY    77  72  84 S10       29.55S                  
6HR MIN TEMP:  76; 6HR MAX TEMP:  82;                                

CORSICANA      CLOUDY    77  73  87 S9        29.57F                  
6HR MIN TEMP:  72; 6HR MAX TEMP:  79; 6HR PCP:  0.82;                

MEXIA          CLOUDY    76  75  96 SE8       29.56S                  
HEARNE         PTSUNNY   80  74  82 SE12G21   29.57F                  
CAMERON        CLOUDY    82  74  77 S18       29.56S                  
6HR MIN TEMP:  79; 6HR MAX TEMP:  86;                                

TEMPLE         CLOUDY    80  73  79 S17       29.55F                  
6HR MIN TEMP:  77; 6HR MAX TEMP:  83;                                

KILLEEN        CLOUDY    78  73  84 SE13      29.54S                  
6HR MIN TEMP:  75; 6HR MAX TEMP:  83; 6HR PCP:  0.01;                

KILLEEN-SKYLRK PTSUNNY   80  74  81 S10       29.55F                  
6HR MIN TEMP:  76; 6HR MAX TEMP:  83; 6HR PCP:  0.14;                

FORT HOOD      CLOUDY    78  73  84 S14       29.53F                  
6HR MIN TEMP:  74; 6HR MAX TEMP:  82; 6HR PCP:  0.49;                

GATESVILLE     CLOUDY    81  73  78 MISG      29.55F HAZE             
HAMILTON       TSTM      75  74  96 SW10G18   29.56S VSB 3/4          
6HR MIN TEMP:  75; 6HR MAX TEMP:  85; 6HR PCP:  0.35;                

LAMPASAS       CLOUDY    71  66  84 NW15G24   29.58R THUNDER          
6HR MIN TEMP:  71; 6HR MAX TEMP:  85;                                

$$

TXZ095>097-106>112-122>126-135>138-148>153-164>167-300100-
EAST TEXAS
  
CITY           SKY/WX    TMP DP  RH WIND       PRES   REMARKS
PARIS          CLOUDY    70  61  73 E14G20    29.60S THUNDER          
6HR MIN TEMP:  68; 6HR MAX TEMP:  72; 6HR PCP:  4.07;                

SULPHUR SPRNGS TSTM      71  71  99 SE9G21    29.61F                  
MOUNT PLEASANT CLOUDY    71  71 100 SE8       29.64S                  
6HR MIN TEMP:  69; 6HR MAX TEMP:  82; 6HR PCP:  2.17;                

GILMER         TSTM      71  70  96 E15G24    29.56F                  
6HR MIN TEMP:  70; 6HR MAX TEMP:  77; 6HR PCP:  0.14;                

MINEOLA        TSTM      70  70 100 CALM      29.60F VSB 1            
TYLER          TSTM      73  70  90 W5        29.61R FOG              
6HR MIN TEMP:  74; 6HR MAX TEMP:  78; 6HR PCP:  0.34;                

LONGVIEW       CLOUDY    75  70  84 SE10      29.62R                  
6HR MIN TEMP:  73; 6HR MAX TEMP:  77; 6HR PCP:  0.03;                

MARSHALL       CLOUDY    70  67  91 E9G18     29.66F                  
6HR MIN TEMP:  70; 6HR MAX TEMP:  73; 6HR PCP:  0.28;                

ATHENS         CLOUDY    72  72 100 S7        29.57S FOG              
PALESTINE      RAIN      74  73  94 SE9       29.61R                  
JACKSONVILLE   TSTM      76  72  87 S14G22    29.62R                  
HENDERSON      CLOUDY    76  70  83 SE14G20   29.61F                  
6HR MIN TEMP:  76; 6HR MAX TEMP:  85;                                

CENTER         CLOUDY    80  72  75 SE13G22   29.65S                  
NACOGDOCHES    CLOUDY    79  70  73 S15G21    29.62S                  
6HR MIN TEMP:  79; 6HR MAX TEMP:  84;                                

LUFKIN         CLOUDY    78  71  79 SE18G33   29.61F THUNDER          
6HR MIN TEMP:  78; 6HR MAX TEMP:  86;                                

$$

SUPPLEMENTAL OBSERVATIONS (CENTRAL)
  
CITY           SKY/WX    TMP DP  RH WIND       PRES   REMARKS
LAKE TEXOMA      N/A     72  68  88 E9          N/A                   
PAT MAYSE LAKE   N/A     68  66  94 E9          N/A                   
GREENVILLE       N/A     70  68  94 E9G17       N/A                   
CEDAR HILL       N/A     72  68  88 S1          N/A                   
ATHENS           N/A     75  72  88 S8          N/A                   
LAKE LIMESTONE   N/A     77  72  83 SE6         N/A                   
MCGREGOR         N/A     79  72  78 S16G24      N/A                   
TEMPLE           N/A     79  72  78 S13G23      N/A                   
$$

SUPPLEMENTAL OBSERVATIONS (WEST)
  
CITY           SKY/WX    TMP DP  RH WIND       PRES   REMARKS
MILLERS CREEK    N/A     81  57  44 N10  C1F1C2F2C3F3C4F4C5F5C6F6C7F7C8F8C9!

Return to Home page


Western Regional Climate Center, wrcc@dri.edu